Location: ????????
(55.4000°N, 39.1167°E)
Time: 08:05:55
(UTC+00:00)

ALOS - Pass Details

Date: 19 May 2025
Orbit: 663 x 666 km, 98.1° (Epoch: 24 June)

Event Time Altitude Azimuth Distance (km) Brightness Sun altitude
Rises 23:43:46 0° 19° (NNE) 3,020 7.4 -8.7°
Reaches altitude 10° 23:46:07 10° 27° (NNE) 2,101 6.4 -8.5°
Maximum altitude 23:50:27 41° 98° (E) 971 3.3 -8.1°
Drops below altitude 10° 23:54:46 10° 168° (SSE) 2,084 4.4 -7.8°
Enters shadow 23:56:44 - 175° (S) 2,850 5.0 -7.6°
